Погода Оловянная

Погода Оловянная : погода сейчас, прогноз погоды и архив. Всё, что Вы хотите узнать о погоде Оловянная!

Хотите узнать прогноз погоды Оловянная? Тогда Вам сюда: Погода Оловянная

Поиск расширенной информации на нашем сайте:

Другие новости

Новости СМИ2

Главная страница сайта

Новости сайта

03.07.2017

Напоминаем, что на нашем специализированном сайте Метеоцентр.Азия вы можете получить высокодетализированные автоматические прогнозы погоды по пунктам России, СНГ и мира в авиационном формате (включающие направление и скорость ветра, видимость, явления погоды, количество и форму облачности, нижнюю и верхнюю границу облачности).

Рекомендуем: Общение на форуме

Погода Оловянная - сегодня

Время (UTC), дата Ветер
(°,м/с) 
Видим.   Явления Облачность Т
(°С)
Тd
(°С)
f(%) Тe
(°С)
Pmin
(гПа)
dP
(гПа)
Po
(мм)
O2
(г/м3)
Тmin Tmax R s Состояние
почвы
03 23.07.17 360 (С) 6{11}  20000 м    8/8 1000 м 
[Sc diur, vesp]
+18.6 +11.5 63 +24  1008.8  0.7  702  263           
06 23.07.17 010 (С) 5-11{12}  20000 м    8/8 1000 м 
[Cu hum]
+20.7 +9.2 48 +22  1008.2  0.1  702  261           
09 23.07.17 010 (С) 4{11}  20000 м    8/8 1000 м 
[Sc diur, vesp]
+20.2 +6.7 41 +20  1008.6  0.2  703  262           
12 23.07.17 340 (С) 20000 м    8/4 1000 м средняя 
[Sc diur, vesp|Ac cast]
+18 +6.9 48 +19  1010.5  1.3  704  265    +21       
15 23.07.17 320 (СЗ) 20000 м    3/3 2000 м средняя 
[Ac lent]
+12.8 +9.2 79 +15  1013.5  1.5  705  269           
18 23.07.17 тихо ()   20000 м    4/4 2000 м средняя 
[Ac lent]
+8.7 +7.8 94 +9  1015.3  0.6  705  274           
21 23.07.17 тихо ()   20000 м    ясно 
+7.1 +6.5 96 +7  1015.7  -0.1  705  276           
00 24.07.17 тихо ()   20000 м    ясно 
+15.2 +10.1 72 +18  1014.1  0.9  706  267  +7        сухая 
03 24.07.17 290 (З) 20000 м    3/3 1000 м 
[Cu hum]
+22.1 +4.5 32 +22  1011.2  -1.4  705  262           
06 24.07.17 290 (З) 2{10}  20000 м    8/8 1000 м 
[Cu hum]
+22.3 +4.9 32 +22  1009.8  -1.2  704  261           
09 24.07.17 300 (СЗ) 20000 м    6/6 1000 м 
[Cu med, cong]
+24.3 +4 27 +24  1008  -1.2  703  259           
12 24.07.17 тихо ()   20000 м    5/5 1000 м 
[Sc diur, vesp]
+20.6 +6.9 41 +21  1009.2  0.2  703  262    +24.4       
15 24.07.17 тихо ()   20000 м    3/3 2000 м средняя 
[Ac lent]
+14 +8 67 +14  1011.5  0.6  703  268           
18 24.07.17 тихо ()   20000 м    3/3 2000 м средняя 
[Ac lent]
+12.2 +8.7 79 +13  1012.2  0.2  704  270           
21 24.07.17 тихо ()   20000 м    3/3 2000 м средняя 
[Ac lent]
+10.4 +8.2 86 +10  1013  0.3  704  272           
00 25.07.17 130 (ЮВ) 20000 м    8/0 верхняя 
[Cc]
+17.1 +10 63 +20  1011  -0.2  704  265  +10.2        сухая 
03 25.07.17 130 (ЮВ) 20000 м    8/3 1000 м верхняя 
[Cu hum|Cs]
+22.9 +8.2 39 +23  1008.2  -1.2  703  260           
06 25.07.17 160 (Ю) 20000 м    10/5 1000 м верхняя 
[Cu med, cong|Cs]
+23.9 +4.5 28 +24  1006.8  -1.2  702  259           
09 25.07.17 250 (З) 5{10}  20000 м    8/3 1000 м средняя 
[Cu hum|Ac lent]
+21.7 +8.5 43 +22  1006.7  -0.5  701  260           
12 25.07.17 270 (З) 20000 м    6/4 1000 м средняя 
[Sc diur, vesp|Ac lent]
+17.3 +8.8 57 +19  1008.2  -0.5  702  264    +24.4       
15 25.07.17 320 (СЗ) 20000 м    8/8 2000 м средняя 
[Ac lent]
+14.4 +9.6 73 +18  1008.3  -0.5  701  267           
18 25.07.17 340 (С) 20000 м    8/8 2000 м средняя 
[Ac lent]
+13.4 +9.8 79 +17  1007.4  -1.1  701  267           
21 25.07.17 300 (СЗ) 20000 м    8/8 1000 м 
[Sc]
+14.5 +9.2 70 +16  1007  0.1  700  266           
00 26.07.17 350 (С) 20000 м    8/8 1000 м 
[Sc]
+16.7 +10.1 65 +21  1006.5  0.1  701  264  +13.3        сухая 
03 26.07.17 360 (С) 20000 м    8/1 1000 м средняя 
[Cu med, cong|Ac trans]
+21.9 +10.3 48 +25  1004.5  -0.6  700  259           
Время (UTC), дата Ветер
(°,м/с) 
Видим.   Явления Облачность Т
(°С)
Тd
(°С)
f(%) Тe
(°С)
Pmin
(гПа)
dP
(гПа)
Po
(мм)
O2
(г/м3)
Тmin Tmax R s Состояние
почвы

Для получения пояснительной информации подведите курсор к названию столбца.

ПОГОДА Оловянная - архив

Всё, что Вы хотите узнать о погоде Оловянная - удобно и подробно!

Выберите нужную дату (начиная с 1 января 2015* года) и нажмите кнопку "Найти".
Будут отображены архивные сводки погоды по пункту Оловянная, начиная с указанной даты.


Отображать данные в формате CSV (для использования в таблицах Excel)


Внимание! Наш архив погоды предназначен исключительно для личного некоммерческого использования в познавательных целях. Если Вам необходимы официальные справки о состоянии погоды (для производственных, юридических, коммерческих и т.п. целей), обращайтесь в органы Росгидромета.

*Примечание: данная дата относится к архиву по метеостанциям СССР (Россия, СНГ, Балтия).
Архив по метеостанциям Зарубежной Европы и Азии (кроме Китая) хранится 10 дней, по другим регионам земного шара (Китай, Африка, Америка, Австралия, Океания) - 1 день.

Оловянная - район местоположения метеостанции


Название, широта, долгота, высота метеостанции:
Оловянная 50.9°ш. 115.6°д. 640 м над ур. моря [Российская Федерация]

Дополнительная информация

В oтличие oт бoльшинства пoгoдных сайтoв мы публикуем пoдрoбную метеoинфoрмацию в детальнoм прoфессиoнальнoм фoрмате.

Характеристики температуры и влажнoсти вoздуха измеряются на высoте 2 м в тени вдали oт зданий и деревьев.
Скoрoсть ветра измеряется на высoте 10 м (на урoвне рoста челoвека скoрoсть ветра ниже в 1.5-2 раза). Если метеoстанция нахoдится в гoрoде или в лесу, тo скoрoсть ветра занижена на 2-4 м/с пo сравнению с oткрытым местoм. Скoрoсть ветра над акватoриями крупных рек и oзёр, а также на вершинах хoлмoв на 2-5 м/с выше, чем в oбычных услoвиях.
Атмoсфернoе давление в разных тoчках местнoсти мoжет значительнo oтличаться oт давления на метеoстанции, в зависимoсти oт услoвий рельефа (при пoдъёме на 10 м давление пoнижается примернo на 1 мм рт.ст.).